EW6810 Weather Reports


time (UTC)temp
C
wind
direction
speed
KPH
gust
KPH
rain 1hr
cm
rain 24hr
cm
rain mn
cm
humidity
%
barometer
mb
20260504173540 21 40 0.0 8.0 0.00 0.00 0.00 47 1006.7
20260504173040 21 138 1.6 6.4 0.00 0.00 0.00 46 1006.8
20260504172538 21 50 1.6 6.4 0.00 0.00 0.00 47 1006.8
20260504172039 21 209 1.6 6.4 0.00 0.00 0.00 46 1006.8
20260504171537 21 69 1.6 6.4 0.00 0.00 0.00 47 1006.8
20260504171037 21 138 0.0 6.4 0.00 0.00 0.00 48 1006.8
20260504170537 21 209 1.6 6.4 0.00 0.00 0.00 48 1006.7
20260504151013 14 4 3.2 4.8 0.00 0.00 0.00 65 1007.0
20260504150513 14 5 1.6 3.2 0.00 0.00 0.00 66 1006.9
20260504141004 13 348 1.6 4.8 0.00 0.00 0.00 64 1006.6
20260504140504 13 331 0.0 4.8 0.00 0.00 0.00 63 1006.6
20260504130558 13 16 3.2 6.4 0.00 0.00 0.00 63 1006.2
20260504110547 15 9 1.6 3.2 0.00 0.00 0.00 59 1006.1
20260504100542 15 12 0.0 4.8 0.00 0.00 0.00 58 1006.1
20260504081531 17 292 1.6 4.8 0.00 0.00 0.00 51 1005.9
20260504081031 17 290 1.6 9.7 0.00 0.00 0.00 50 1005.8
20260504080530 17 250 1.6 9.7 0.00 0.00 0.00 52 1005.8
20260504050524 18 30 3.2 9.7 0.00 0.00 0.00 50 1005.9
20260504050123 18 342 1.6 6.4 0.00 0.00 0.00 50 1005.8
20260504045523 18 305 0.0 6.4 0.00 0.00 0.00 50 1005.9
20260504045024 18 28 0.0 4.8 0.00 0.00 0.00 51 1005.9
20260504044527 18 29 1.6 4.8 0.00 0.00 0.00 49 1005.9
20260504044023 19 30 1.6 8.0 0.00 0.00 0.00 50 1005.9
20260504043522 19 106 1.6 8.0 0.00 0.00 0.00 49 1005.8
20260504043023 19 19 1.6 4.8 0.00 0.00 0.00 48 1005.9
20260504042523 19 19 1.6 6.4 0.00 0.00 0.00 48 1005.9
20260504042022 20 21 1.6 6.4 0.00 0.00 0.00 48 1005.9
20260504041522 20 13 0.0 6.4 0.00 0.00 0.00 48 1005.8
20260504041022 20 19 1.6 6.4 0.00 0.00 0.00 48 1005.9
20260504040522 20 8 1.6 6.4 0.00 0.00 0.00 48 1005.9
20260504040022 20 10 0.0 6.4 0.00 0.00 0.00 46 1005.9
20260504035524 20 40 1.6 9.7 0.00 0.00 0.00 46 1005.9
20260504035020 21 36 3.2 9.7 0.00 0.00 0.00 43 1005.8
20260504034518 21 18 1.6 12.9 0.00 0.00 0.00 44 1005.8
20260504034016 21 308 4.8 12.9 0.00 0.00 0.00 41 1005.8
20260504033516 21 311 4.8 12.9 0.00 0.00 0.00 41 1005.8
20260504033013 21 287 3.2 11.3 0.00 0.00 0.00 42 1005.8
20260504032518 21 316 1.6 6.4 0.00 0.00 0.00 43 1005.8
20260504032010 21 304 1.6 4.8 0.00 0.00 0.00 44 1005.7
20260504031511 22 285 1.6 6.4 0.00 0.00 0.00 42 1005.8
20260504031009 22 285 0.0 6.4 0.00 0.00 0.00 43 1005.8
20260504030509 22 319 1.6 4.8 0.00 0.00 0.00 43 1005.8
20260504030008 22 101 0.0 3.2 0.00 0.00 0.00 44 1005.8
20260504025507 22 106 0.0 3.2 0.00 0.00 0.00 43 1005.9
20260504025005 23 106 1.6 3.2 0.00 0.00 0.00 43 1005.8
20260504024503 23 106 1.6 3.2 0.00 0.00 0.00 44 1005.8
20260504024002 23 106 1.6 3.2 0.00 0.00 0.00 42 1005.8
20260504023600 23 106 1.6 3.2 0.00 0.00 0.00 40 1005.8
20260504023059 23 106 0.0 3.2 0.00 0.00 0.00 39 1005.9
20260504022602 24 106 1.6 3.2 0.00 0.00 0.00 36 1005.9
20260504022056 25 106 0.0 1.6 0.00 0.00 0.00 37 1006.0
20260504021555 25 106 0.0 1.6 0.00 0.00 0.00 35 1005.9
20260504021053 26 93 0.0 3.2 0.00 0.00 0.00 32 1005.9
20260504020552 26 93 0.0 3.2 0.00 0.00 0.00 31 1006.0
20260504020050 26 93 0.0 3.2 0.00 0.00 0.00 30 1006.0
20260504015549 26 93 1.6 3.2 0.00 0.00 0.00 29 1006.1
20260504015047 26 93 0.0 3.2 0.00 0.00 0.00 29 1006.0
20260504014546 26 92 0.0 3.2 0.00 0.00 0.00 29 1006.1
20260504014045 26 149 0.0 4.8 0.00 0.00 0.00 27 1006.2
20260504013542 27 133 1.6 4.8 0.00 0.00 0.00 28 1006.3
20260504013041 27 25 0.0 6.4 0.00 0.00 0.00 27 1006.3
20260504012640 27 353 3.2 6.4 0.00 0.00 0.00 27 1006.4
20260504012039 27 186 0.0 4.8 0.00 0.00 0.00 29 1006.5
20260504011537 27 162 1.6 4.8 0.00 0.00 0.00 28 1006.5
20260504011035 27 161 0.0 4.8 0.00 0.00 0.00 28 1006.6
20260504010534 27 147 1.6 6.4 0.00 0.00 0.00 28 1006.6
20260504010032 27 111 0.0 6.4 0.00 0.00 0.00 28 1006.6
20260504005530 27 142 1.6 6.4 0.00 0.00 0.00 26 1006.7
20260504005028 27 63 0.0 6.4 0.00 0.00 0.00 29 1006.7
20260504004529 27 142 1.6 6.4 0.00 0.00 0.00 28 1006.8
20260504004028 27 70 0.0 6.4 0.00 0.00 0.00 31 1006.8
20260504003524 27 63 0.0 6.4 0.00 0.00 0.00 31 1006.9
20260504003037 27 52 0.0 6.4 0.00 0.00 0.00 31 1007.0
20260504002521 27 166 3.2 6.4 0.00 0.00 0.00 30 1007.1
20260504002020 27 146 1.6 4.8 0.00 0.00 0.00 30 1007.1
20260504001521 28 326 1.6 4.8 0.00 0.00 0.00 29 1007.1
20260504001017 27 40 1.6 9.7 0.00 0.00 0.00 29 1007.2
20260504000517 27 166 1.6 9.7 0.00 0.00 0.00 32 1007.2
20260504000040 27 82 1.6 6.4 0.00 0.00 0.00 33 1007.2
20260503235513 27 158 1.6 6.4 0.00 0.00 0.00 32 1007.4
20260503235011 27 157 1.6 4.8 0.00 0.00 0.00 31 1007.4
20260503234510 27 71 0.0 6.4 0.00 0.00 0.00 33 1007.5
20260503234008 27 192 1.6 8.0 0.00 0.00 0.00 32 1007.5
20260503233507 27 121 3.2 8.0 0.00 0.00 0.00 33 1007.5
20260503233008 27 201 1.6 6.4 0.00 0.00 0.00 33 1007.6
20260503232503 26 140 0.0 8.0 0.00 0.00 0.00 35 1007.6
20260503232002 26 144 3.2 8.0 0.00 0.00 0.00 34 1007.7
20260503231601 27 168 1.6 8.0 0.00 0.00 0.00 35 1007.7
20260503231100 26 175 3.2 6.4 0.00 0.00 0.00 34 1007.8
20260503230559 26 218 3.2 6.4 0.00 0.00 0.00 34 1007.9
20260503230056 26 149 1.6 9.7 0.00 0.00 0.00 35 1008.0
20260503225554 26 175 0.0 9.7 0.00 0.00 0.00 38 1008.0
20260503225053 26 165 3.2 8.0 0.00 0.00 0.00 34 1008.1
20260503224552 26 146 3.2 8.0 0.00 0.00 0.00 33 1008.1
20260503224050 26 115 1.6 4.8 0.00 0.00 0.00 33 1008.2
20260503223548 26 47 1.6 6.4 0.00 0.00 0.00 33 1008.3
20260503223048 25 81 3.2 6.4 0.00 0.00 0.00 34 1008.4
20260503222545 25 175 1.6 8.0 0.00 0.00 0.00 34 1008.5
20260503222044 26 202 1.6 8.0 0.00 0.00 0.00 34 1008.5
20260503221551 26 65 1.6 8.0 0.00 0.00 0.00 38 1008.6
20260503221042 26 34 1.6 4.8 0.00 0.00 0.00 36 1008.6
20260503220540 25 61 1.6 8.0 0.00 0.00 0.00 37 1008.7
20260503220039 25 126 1.6 8.0 0.00 0.00 0.00 37 1008.7
20260503215537 25 163 3.2 6.4 0.00 0.00 0.00 36 1008.7
20260503215034 26 34 1.6 4.8 0.00 0.00 0.00 36 1008.8
20260503214536 25 73 1.6 8.0 0.00 0.00 0.00 36 1008.8
20260503214032 25 164 1.6 8.0 0.00 0.00 0.00 39 1009.0
20260503213530 25 111 3.2 8.0 0.00 0.00 0.00 37 1009.0
20260503213029 24 190 1.6 8.0 0.00 0.00 0.00 39 1009.1
20260503212528 25 144 3.2 9.7 0.00 0.00 0.00 37 1009.1
20260503212027 25 162 3.2 9.7 0.00 0.00 0.00 37 1009.2
20260503211524 25 60 1.6 9.7 0.00 0.00 0.00 40 1009.2
20260503211023 25 144 1.6 9.7 0.00 0.00 0.00 39 1009.3
20260503210523 25 125 1.6 9.7 0.00 0.00 0.00 40 1009.3
20260503210020 25 88 1.6 9.7 0.00 0.00 0.00 40 1009.4
20260503205519 25 38 1.6 8.0 0.00 0.00 0.00 39 1009.4
20260503205017 23 186 1.6 9.7 0.00 0.00 0.00 41 1009.5
20260503204515 24 171 4.8 9.7 0.00 0.00 0.00 39 1009.6
20260503204013 25 189 1.6 9.7 0.00 0.00 0.00 38 1009.6
20260503203515 25 142 1.6 8.0 0.00 0.00 0.00 42 1009.6
20260503203019 24 49 4.8 8.0 0.00 0.00 0.00 39 1009.8
20260503202510 25 88 1.6 6.4 0.00 0.00 0.00 42 1009.8
20260503202009 24 86 0.0 4.8 0.00 0.00 0.00 43 1009.9
20260503201507 24 115 1.6 11.3 0.00 0.00 0.00 43 1009.9
20260503201005 23 148 3.2 11.3 0.00 0.00 0.00 42 1010.0
20260503200504 23 178 3.2 8.0 0.00 0.00 0.00 41 1010.1
20260503200003 23 171 3.2 8.0 0.00 0.00 0.00 42 1010.1
20260503195501 23 156 4.8 8.0 0.00 0.00 0.00 40 1010.2
20260503195059 23 180 3.2 6.4 0.00 0.00 0.00 40 1010.2
20260503194600 23 137 0.0 6.4 0.00 0.00 0.00 41 1010.3
20260503194056 23 187 1.6 8.0 0.00 0.00 0.00 43 1010.3
20260503193555 23 163 1.6 8.0 0.00 0.00 0.00 42 1010.4
20260503193054 22 94 1.6 8.0 0.00 0.00 0.00 44 1010.5
20260503192552 22 154 3.2 8.0 0.00 0.00 0.00 42 1010.5
20260503192050 22 138 3.2 6.4 0.00 0.00 0.00 43 1010.6
20260503191549 22 118 3.2 6.4 0.00 0.00 0.00 41 1010.6
20260503191050 22 181 3.2 8.0 0.00 0.00 0.00 43 1010.6
20260503190545 22 156 3.2 8.0 0.00 0.00 0.00 44 1010.7
20260503190045 22 225 3.2 6.4 0.00 0.00 0.00 43 1010.7
20260503185543 22 165 1.6 9.7 0.00 0.00 0.00 43 1010.8
20260503185041 22 177 3.2 9.7 0.00 0.00 0.00 43 1010.8
20260503184540 21 101 0.0 11.3 0.00 0.00 0.00 44 1010.8
20260503184039 22 213 4.8 11.3 0.00 0.00 0.00 42 1010.9
20260503183536 21 218 1.6 8.0 0.00 0.00 0.00 44 1010.8
20260503183036 21 186 1.6 8.0 0.00 0.00 0.00 43 1010.8
20260503182536 21 48 3.2 6.4 0.00 0.00 0.00 46 1010.9
20260503182033 21 175 1.6 6.4 0.00 0.00 0.00 45 1010.9
20260503181531 21 196 1.6 6.4 0.00 0.00 0.00 46 1010.9
20260503181030 21 240 1.6 6.4 0.00 0.00 0.00 46 1010.9
20260503180528 21 218 1.6 6.4 0.00 0.00 0.00 46 1010.8
20260503180030 21 173 1.6 6.4 0.00 0.00 0.00 47 1010.9
20260503175525 21 164 1.6 4.8 0.00 0.00 0.00 47 1010.9
20260503175023 21 207 1.6 8.0 0.00 0.00 0.00 48 1011.0
20260503174522 20 151 3.2 8.0 0.00 0.00 0.00 48 1011.0
20260503174022 21 138 0.0 6.4 0.00 0.00 0.00 49 1011.0